Wind_Speed
33 31 28 25 24 24 23 22 22 22 22 22 23 23 25 26 27 26 28 32 32 27 27 34 34 34 35 39 41 44 47 48 49 52 59 64 67 70 71 73 72 72 71 71 72 70 71 74 77 79 82 86 90 89
31 29 27 26 25 24 23 22 23 23 24 23 23 23 24 24 23 24 27 26 25 26 30 32 32 31 34 36 37 37 41 45 47 51 57 61 64 66 69 70 70 69 69 68 67 67 68 73 77 80 82 83 84 82
30 27 24 23 23 22 23 23 23 23 24 24 24 23 23 23 21 22 24 25 24 27 30 32 34 34 36 39 37 39 41 42 47 51 54 58 60 65 67 66 64 63 62 60 61 64 67 69 73 76 77 78 75 74
26 24 22 21 20 20 21 22 22 23 24 24 23 23 23 23 22 21 22 23 24 26 27 26 30 34 31 36 39 39 38 41 44 46 49 52 57 60 62 60 57 58 56 60 60 62 58 61 61 59 61 61 59 60
24 21 19 19 18 17 18 19 20 21 21 21 20 19 20 20 21 22 22 22 22 22 24 27 27 30 31 34 35 35 35 36 37 39 44 52 56 56 56 54 55 57 58 57 60 53 54 54 55 56 54 52 51 51
19 19 18 18 19 19 19 19 18 18 20 20 19 18 19 19 21 24 25 27 25 23 24 25 27 30 33 34 35 33 33 34 36 40 42 46 51 51 51 53 55 54 55 56 52 53 54 53 52 53 49 46 44 46
19 21 22 22 23 24 24 24 23 20 19 20 20 20 19 20 23 25 26 24 24 24 27 27 28 29 31 32 31 32 32 34 37 39 42 43 45 46 48 51 52 54 54 53 53 53 50 48 49 47 44 44 43 41
18 19 20 21 22 23 25 27 27 27 24 23 23 22 22 21 21 22 23 23 24 24 26 26 29 30 30 31 31 33 34 36 38 39 40 43 43 45 47 50 51 51 50 51 50 50 47 45 47 44 41 39 39 39
16 16 17 18 19 22 25 27 28 29 29 29 27 23 18 21 21 22 23 23 23 23 26 27 27 27 28 28 29 31 32 35 37 39 41 41 42 43 47 51 51 50 51 50 49 47 47 41 40 39 36 38 36 37
11 12 14 16 19 21 23 26 30 33 36 34 29 22 24 25 20 18 19 21 21 24 26 27 28 28 28 29 30 30 32 33 35 37 35 36 40 45 46 51 51 49 48 47 45 42 40 38 36 37 37 35 36 35
8 10 11 12 13 15 18 22 27 30 31 31 29 32 33 31 25 18 17 18 20 24 27 29 29 30 29 29 29 32 33 36 37 38 37 39 42 42 47 47 49 46 44 42 40 38 37 37 36 37 36 35 36 37
4 6 7 9 11 14 17 21 23 25 28 31 36 38 40 38 26 21 18 19 19 21 24 26 27 28 29 30 32 34 35 36 39 39 38 38 42 45 46 47 48 47 44 40 37 36 34 36 38 38 39 36 36 37
6 6 7 11 14 15 15 17 21 25 28 32 35 39 38 32 27 24 26 25 27 29 24 23 25 28 28 30 32 32 34 38 38 39 40 44 49 49 49 49 48 45 40 35 32 34 36 37 39 41 42 41 36 37
11 9 10 11 14 14 17 19 18 20 24 27 29 30 30 33 36 38 37 36 33 27 26 26 26 25 25 26 24 26 30 34 37 38 42 51 51 47 41 39 39 38 36 38 36 33 31 34 37 40 42 42 40 37
16 17 16 16 18 17 17 19 20 21 22 23 24 26 32 38 39 38 37 35 31 29 29 27 25 25 24 22 23 26 29 31 35 42 48 46 43 36 34 35 34 34 35 36 35 35 34 34 36 41 40 41 42 43
18 20 22 22 21 20 20 20 19 17 17 20 23 26 26 28 29 32 33 33 33 31 28 28 29 29 27 26 28 29 31 36 42 41 41 39 38 38 37 38 38 39 40 39 39 37 33 33 38 41 42 44 46 45
23 21 23 25 25 24 21 20 20 21 19 15 13 13 18 20 22 25 28 30 33 33 34 33 32 30 26 25 27 29 30 32 33 36 37 38 38 39 40 41 42 41 43 43 43 41 39 36 39 40 39 38 40 41
26 25 25 25 26 26 25 23 21 19 17 17 17 16 15 15 15 17 19 20 24 26 28 29 28 28 25 23 23 25 28 30 33 36 41 42 42 41 40 39 40 41 39 39 36 34 34 35 37 37 38 39 39 40
24 25 27 27 26 26 26 25 22 21 21 20 19 17 16 14 13 13 14 15 17 18 21 23 24 25 25 24 25 24 24 25 27 28 31 32 32 33 32 32 32 32 32 32 31 31 32 32 34 35 37 40 41 42
27 26 26 27 26 23 24 25 25 24 23 22 21 19 17 16 15 14 13 13 12 13 14 16 18 19 20 21 21 22 23 24 24 25 26 28 28 27 27 29 30 30 31 32 33 34 34 35 36 36 36 37 38 40
33 32 31 30 30 26 24 25 22 20 20 19 19 18 17 16 15 15 14 14 13 13 12 12 12 13 14 15 17 18 20 21 23 24 25 25 26 26 26 27 29 32 33 35 37 37 38 39 40 40 41 42 43 43
35 35 34 32 32 31 28 27 27 26 23 21 18 15 13 11 10 9 9 9 10 11 13 14 16 17 18 18 18 19 20 21 22 23 24 25 26 28 30 32 34 34 35 37 37 38 40 41 42 42 42 43 43 43
27 28 27 26 27 26 26 25 24 23 22 20 18 16 14 12 8 6 4 3 4 6 8 11 14 17 19 20 22 24 25 25 26 29 31 32 32 33 33 35 36 38 39 39 39 39 40 40 41 41 41 40 40 41
20 21 21 20 20 21 19 19 17 17 16 15 14 11 9 8 6 4 3 3 5 5 7 10 13 16 19 20 21 23 24 25 27 29 31 33 34 35 35 36 37 38 38 38 38 38 39 39 39 40 41 41 42 43
15 17 16 16 16 17 17 17 16 15 15 15 16 15 14 14 16 16 17 16 15 16 17 19 19 20 20 21 22 24 25 28 29 30 31 33 35 37 38 38 37 37 38 39 40 40 39 39 40 41 43 45 47 47
12 13 14 15 15 16 17 18 19 19 20 21 23 23 23 22 22 22 22 23 24 25 25 25 26 28 29 30 31 32 32 33 33 34 34 34 35 34 34 35 36 36 37 37 37 38 39 40 40 41 42 43 44 46
13 14 16 17 17 18 19 20 22 23 25 28 28 29 28 27 25 27 27 27 28 29 30 32 32 33 34 35 36 37 38 38 39 39 39 39 40 40 41 41 41 42 42 43 43 44 44 45 46 47 48 49 49 50
16 17 19 21 22 24 25 27 29 31 33 34 34 34 33 29 29 28 27 27 28 29 30 31 31 32 33 34 35 36 37 38 40 40 41 41 41 41 41 41 41 42 43 44 44 45 45 46 46 47 48 48 49 50
21 23 25 26 28 30 31 33 36 38 39 39 37 35 34 32 31 29 29 27 27 26 26 28 30 31 32 33 33 34 34 35 36 37 37 38 39 39 39 40 40 40 41 41 42 42 43 43 44 44 45 46 47 47
26 27 29 31 33 35 37 39 41 42 42 40 37 35 34 34 33 32 30 28 26 25 25 26 27 28 29 30 31 32 33 33 33 34 34 34 35 35 35 36 36 37 37 38 39 39 40 40 41 41 42 43 43 44
31 33 34 36 37 39 40 42 43 42 40 36 34 33 33 32 31 31 29 27 27 25 24 24 25 26 27 28 29 29 29 30 30 31 32 32 33 33 33 33 33 34 34 35 35 36 37 37 38 39 39 40 41 41
36 35 37 38 38 40 41 40 39 38 35 33 33 32 31 30 29 29 29 27 26 24 24 23 24 24 24 24 24 24 25 25 26 26 26 27 27 27 28 29 29 30 31 31 32 33 34 34 35 36 36 37 38 39
37 38 38 39 39 37 37 37 36 33 31 31 31 31 30 29 29 28 26 24 24 23 23 22 22 22 22 22 23 23 23 23 23 23 24 24 25 25 26 27 28 28 29 30 30 31 32 33 33 34 35 35 36 36
Wind_Direction
277 274 270 268 267 264 260 255 248 242 238 234 232 232 232 233 232 227 224 227 229 228 223 224 226 226 225 222 220 219 221 222 221 218 217 219 220 220 222 224 225 226 228 230 232 234 236 238 240 240 241 241 242 241
269 267 266 266 263 260 256 253 249 244 241 238 234 230 228 228 227 225 224 226 223 215 218 217 218 217 219 222 224 219 217 217 216 216 216 217 220 220 224 226 228 230 232 234 236 238 239 241 242 242 241 242 242 243
266 267 268 265 262 259 256 252 248 245 242 239 235 232 230 229 227 225 221 218 215 212 215 214 213 211 209 208 210 212 215 209 212 215 217 218 219 220 224 227 229 233 234 236 237 238 238 239 242 243 246 247 249 250
261 259 257 255 252 248 246 243 242 241 240 236 232 230 228 228 224 222 219 216 213 214 215 216 216 215 210 208 208 207 206 208 212 215 216 218 219 222 225 228 231 234 236 237 239 242 243 245 247 249 249 249 250 250
253 251 250 249 247 246 243 239 235 229 228 227 224 222 220 218 216 213 213 212 211 211 213 213 209 205 204 205 205 204 202 204 210 215 216 217 220 222 225 227 230 233 235 239 242 245 245 248 249 250 252 253 253 252
245 244 242 238 234 230 229 231 229 230 225 219 214 213 210 208 206 204 204 205 201 200 202 203 206 205 203 200 197 196 200 203 207 211 214 216 219 221 223 226 231 234 236 240 243 245 247 249 251 254 255 254 253 251
241 240 237 233 228 225 220 219 220 222 223 220 215 208 205 204 204 204 206 205 200 199 199 195 196 199 199 197 193 192 196 204 209 211 211 213 216 218 221 226 229 233 236 241 243 246 248 251 251 251 251 252 249 247
247 246 242 237 232 228 224 219 215 215 213 216 214 212 208 210 206 203 203 204 203 199 196 194 196 198 195 192 192 195 198 205 210 211 213 214 215 218 222 227 229 233 236 240 243 246 247 247 251 252 252 251 248 243
249 245 242 239 232 224 218 214 211 211 212 210 209 208 206 213 210 198 200 199 199 200 198 195 197 198 199 194 198 204 205 206 208 211 213 215 217 219 225 230 232 234 236 239 242 244 248 246 251 253 250 250 244 237
248 249 239 229 220 214 212 210 206 206 210 211 206 195 212 217 213 200 191 194 196 200 200 198 198 202 204 201 201 207 208 209 210 214 215 215 217 220 225 230 235 235 238 242 244 246 249 251 247 249 248 242 244 238
235 228 227 222 216 210 209 208 207 207 207 207 196 199 212 217 212 199 186 186 190 197 199 199 200 201 204 205 204 207 213 214 216 216 216 219 224 226 230 235 240 242 241 242 244 245 246 248 248 248 245 243 239 240
184 193 195 192 190 192 191 193 194 197 195 193 195 200 208 216 210 206 197 196 194 197 202 202 204 204 204 203 203 202 207 215 215 216 214 218 224 225 230 233 238 243 248 249 247 246 243 242 244 247 249 245 238 239
127 142 146 156 166 180 181 182 186 186 187 190 195 201 202 206 207 214 211 203 205 204 197 200 203 202 198 200 202 203 201 207 215 218 215 217 224 225 227 231 237 242 247 251 251 249 248 243 243 242 244 246 241 241
118 123 131 137 146 156 163 163 166 173 181 187 191 196 195 197 202 206 212 215 210 207 205 204 205 206 204 201 197 198 199 204 208 214 217 223 229 233 239 243 245 247 249 247 247 249 249 246 242 241 243 247 251 245
115 118 121 126 131 134 146 153 156 161 173 181 185 184 192 197 201 205 209 214 216 216 212 211 212 215 209 199 196 195 195 200 206 211 219 228 236 240 242 244 246 247 249 250 251 250 248 248 243 241 240 241 246 248
109 114 116 116 118 121 129 132 136 145 158 169 178 188 197 199 203 207 210 212 215 218 221 218 217 216 212 208 207 201 195 199 209 216 223 228 233 237 240 241 244 247 249 251 252 253 253 245 244 241 242 244 249 251
100 105 109 112 113 113 116 122 130 136 137 143 162 186 196 203 205 208 210 211 212 216 219 223 224 225 219 208 203 206 208 212 216 219 223 226 231 233 236 241 243 246 249 252 253 254 253 249 246 245 249 255 258 258
98 100 103 105 106 109 111 114 118 122 129 139 145 153 160 169 190 207 216 221 222 224 227 229 236 238 240 238 232 224 222 220 221 222 224 230 233 237 241 242 241 244 248 251 254 255 252 249 249 250 252 252 253 255
96 96 97 97 101 105 107 107 110 116 118 123 129 135 139 148 160 174 187 198 209 218 223 228 231 236 238 238 238 236 236 234 235 236 240 243 245 247 248 250 251 252 253 255 255 252 250 251 255 257 256 256 256 259
97 96 94 94 93 97 102 105 106 109 114 117 122 126 129 135 143 152 161 174 188 198 206 213 218 223 228 234 236 235 237 237 238 238 238 239 240 242 245 246 246 247 248 248 249 251 255 258 261 261 261 262 264 266
90 90 90 91 89 88 94 94 97 100 108 111 115 120 125 132 139 146 153 162 167 173 178 189 199 208 213 219 224 228 230 233 235 238 239 239 239 237 238 242 244 244 245 246 249 253 255 257 258 260 261 262 261 261
85 84 83 85 86 86 87 88 90 89 89 89 92 96 101 111 124 138 155 172 183 190 197 202 208 210 213 217 222 227 228 229 234 237 240 243 242 242 242 243 246 248 249 250 250 251 252 253 255 256 257 258 258 259
83 83 82 80 80 79 79 81 80 82 81 83 85 87 89 90 96 95 115 166 210 220 232 237 235 231 231 231 231 232 234 235 237 240 241 242 243 243 244 246 249 250 251 252 252 252 252 253 255 255 256 257 257 259
76 76 72 68 66 63 63 59 59 54 51 44 41 38 38 32 29 4 332 297 267 252 241 245 248 248 248 248 248 246 245 245 246 248 249 250 251 250 249 250 251 253 253 254 255 257 259 259 259 260 261 261 263 264
62 58 55 50 47 43 37 34 29 23 16 8 1 354 344 336 329 320 313 304 292 283 278 275 272 269 265 262 261 259 258 257 256 255 255 255 255 255 254 254 256 258 259 258 259 260 261 262 262 262 263 264 266 268
35 32 31 25 19 12 7 3 358 351 344 338 333 328 324 317 311 306 299 291 287 281 278 274 268 264 263 263 262 262 262 261 260 259 259 259 260 261 261 262 263 264 264 265 266 266 266 266 267 267 267 268 269 270
358 358 356 352 346 343 338 335 330 327 324 320 317 315 311 309 306 298 292 288 283 279 277 274 272 270 268 267 266 266 265 265 266 265 265 264 264 264 265 265 265 266 267 267 267 268 268 269 269 270 271 272 273 273
324 327 328 327 324 323 322 321 317 314 312 312 313 311 309 309 305 299 294 288 285 282 281 279 277 275 273 271 270 269 269 269 269 270 271 271 271 271 272 272 272 273 273 273 273 274 274 275 275 276 276 277 277 278
309 312 313 311 311 312 311 309 308 307 308 310 309 310 312 310 304 301 298 296 291 285 280 277 275 274 275 274 274 274 273 272 271 271 271 271 272 272 274 274 275 274 274 274 275 275 276 276 277 277 278 279 280 281
301 303 301 301 301 301 300 300 301 303 307 308 310 312 307 304 303 302 302 300 297 292 288 285 282 279 277 276 275 275 276 276 276 276 275 275 274 274 274 275 275 275 275 276 276 277 277 278 278 279 279 280 280 281
290 290 293 294 295 295 296 297 301 304 305 309 308 304 302 302 303 303 303 303 300 297 293 287 283 280 278 276 276 277 277 276 276 276 276 277 278 278 278 278 278 278 278 278 278 278 277 278 278 279 279 280 280 281
286 288 289 290 293 295 299 301 301 303 306 305 303 302 303 304 303 304 303 303 302 298 294 291 289 288 287 286 284 282 281 279 278 277 277 276 276 277 276 277 277 277 278 278 279 279 279 279 279 280 280 280 281 282
286 287 289 292 295 297 297 298 302 305 305 303 303 304 306 305 304 304 303 301 299 297 295 294 293 291 289 288 287 286 284 283 282 282 282 281 281 281 281 280 280 281 281 280 281 281 281 281 281 282 282 282 283 284
Height
10061 10060 10059 10059 10060 10060 10061 10061 10062 10063 10065 10067 10070 10073 10076 10079 10083 10088 10091 10093 10100 10110 10115 10118 10126 10135 10142 10148 10158 10166 10175 10187 10199 10211 10221 10230 10240 10248 10257 10264 10274 10283 10294 10303 10310 10321 10326 10329 10333 10340 10344 10347 10348 10358
10051 10051 10051 10052 10053 10054 10055 10056 10057 10059 10061 10064 10067 10070 10072 10075 10078 10083 10087 10092 10098 10102 10107 10111 10118 10127 10134 10144 10153 10163 10170 10180 10193 10202 10211 10220 10229 10240 10245 10254 10263 10275 10282 10290 10301 10308 10312 10310 10314 10319 10322 10327 10330 10340
10042 10043 10043 10044 10045 10046 10048 10049 10051 10054 10056 10059 10063 10065 10067 10070 10075 10079 10083 10087 10092 10096 10100 10105 10110 10120 10126 10133 10144 10153 10163 10175 10185 10193 10202 10211 10221 10229 10236 10246 10255 10264 10272 10280 10285 10288 10291 10296 10298 10300 10308 10314 10323 10329
10033 10033 10033 10034 10036 10038 10039 10042 10045 10048 10051 10053 10056 10059 10062 10067 10072 10076 10080 10084 10088 10092 10098 10105 10109 10114 10127 10132 10138 10147 10159 10171 10180 10189 10197 10207 10215 10221 10228 10237 10249 10253 10261 10264 10270 10271 10281 10282 10285 10292 10295 10300 10307 10311
10022 10023 10025 10027 10030 10032 10035 10037 10040 10043 10045 10048 10051 10056 10059 10064 10069 10073 10077 10081 10085 10091 10097 10101 10107 10114 10122 10128 10136 10146 10156 10166 10177 10186 10193 10197 10203 10212 10220 10231 10237 10241 10246 10253 10253 10265 10267 10271 10274 10278 10283 10288 10292 10295
10014 10016 10018 10020 10023 10026 10029 10032 10036 10039 10042 10044 10048 10052 10057 10061 10064 10069 10072 10074 10080 10087 10092 10098 10105 10112 10118 10125 10132 10142 10152 10160 10169 10176 10184 10190 10197 10206 10214 10220 10225 10232 10236 10239 10248 10252 10253 10259 10263 10266 10271 10273 10277 10279
10006 10007 10008 10010 10014 10017 10021 10025 10029 10034 10038 10042 10045 10049 10054 10057 10060 10065 10070 10076 10081 10086 10091 10096 10103 10110 10117 10124 10132 10139 10147 10155 10162 10169 10176 10183 10191 10199 10206 10210 10216 10219 10225 10230 10236 10238 10243 10248 10250 10253 10259 10261 10264 10268
9997 9998 10000 10003 10006 10011 10015 10020 10024 10028 10033 10037 10041 10046 10050 10054 10059 10064 10070 10075 10080 10086 10090 10096 10102 10108 10115 10123 10129 10136 10143 10149 10156 10163 10170 10176 10184 10190 10195 10198 10204 10208 10215 10217 10223 10226 10232 10237 10237 10242 10246 10249 10252 10256
9990 9992 9993 9996 9999 10003 10007 10011 10018 10024 10028 10032 10037 10043 10050 10053 10057 10064 10068 10074 10080 10087 10091 10096 10101 10108 10115 10123 10128 10133 10139 10144 10150 10156 10161 10169 10176 10183 10183 10185 10192 10200 10201 10208 10212 10217 10220 10228 10229 10231 10235 10236 10239 10243
9985 9986 9987 9989 9992 9996 10000 10005 10010 10016 10020 10025 10036 10047 10047 10049 10056 10063 10070 10075 10080 10084 10089 10094 10099 10105 10112 10119 10125 10131 10136 10141 10145 10150 10159 10165 10168 10168 10174 10173 10179 10187 10194 10199 10204 10209 10211 10215 10219 10220 10222 10226 10228 10232
9982 9982 9983 9985 9988 9991 9996 10001 10005 10010 10017 10025 10036 10041 10041 10045 10053 10061 10069 10073 10077 10081 10086 10091 10096 10102 10108 10115 10122 10127 10131 10136 10141 10147 10153 10156 10159 10165 10164 10169 10172 10179 10186 10191 10195 10199 10202 10204 10206 10208 10211 10213 10217 10221
9979 9979 9981 9982 9985 9988 9992 9997 10003 10009 10015 10023 10028 10033 10035 10041 10053 10060 10069 10073 10077 10079 10082 10088 10094 10100 10106 10112 10117 10123 10127 10131 10136 10142 10147 10151 10151 10153 10157 10161 10164 10170 10176 10181 10186 10189 10192 10194 10196 10197 10199 10203 10206 10209
9979 9979 9980 9982 9984 9987 9991 9997 10001 10006 10012 10017 10023 10026 10033 10045 10055 10061 10064 10069 10070 10073 10081 10087 10091 10096 10102 10106 10112 10118 10125 10128 10131 10136 10142 10142 10138 10145 10149 10153 10159 10163 10169 10174 10177 10179 10180 10183 10184 10186 10188 10191 10196 10199
9981 9982 9983 9984 9987 9990 9993 9997 10002 10007 10013 10017 10022 10029 10037 10044 10047 10051 10055 10059 10065 10075 10080 10084 10088 10093 10098 10104 10111 10117 10121 10125 10129 10132 10133 10127 10132 10139 10147 10152 10154 10157 10160 10161 10164 10167 10170 10171 10173 10175 10178 10182 10186 10189
9986 9987 9987 9989 9991 9994 9997 10000 10003 10007 10012 10017 10022 10028 10032 10035 10040 10047 10053 10059 10065 10071 10076 10082 10088 10091 10096 10103 10108 10112 10116 10120 10123 10123 10121 10125 10130 10137 10141 10143 10147 10149 10150 10152 10154 10156 10157 10158 10161 10164 10168 10171 10174 10176
9991 9991 9992 9993 9995 9998 10000 10003 10007 10011 10014 10019 10024 10027 10031 10038 10042 10047 10052 10058 10063 10068 10073 10078 10082 10087 10092 10098 10103 10107 10111 10112 10111 10116 10120 10125 10128 10130 10133 10136 10138 10140 10140 10142 10144 10146 10148 10149 10151 10153 10156 10158 10160 10163
9997 9998 9998 9998 9999 10002 10005 10007 10011 10014 10018 10023 10027 10032 10034 10038 10042 10047 10052 10056 10061 10065 10068 10071 10077 10081 10086 10092 10098 10101 10104 10108 10112 10114 10115 10118 10120 10123 10125 10126 10127 10129 10131 10132 10134 10136 10138 10140 10141 10143 10146 10147 10149 10151
10005 10006 10006 10006 10007 10008 10011 10014 10016 10019 10022 10026 10029 10033 10036 10040 10045 10049 10053 10057 10060 10064 10067 10070 10075 10078 10082 10086 10090 10093 10097 10100 10102 10105 10106 10109 10112 10114 10116 10117 10118 10120 10121 10123 10124 10125 10127 10128 10131 10133 10135 10136 10138 10139
10015 10016 10016 10016 10017 10017 10018 10020 10022 10024 10026 10030 10033 10036 10039 10042 10045 10049 10052 10055 10058 10061 10064 10067 10071 10075 10078 10081 10083 10086 10089 10092 10095 10097 10099 10100 10102 10103 10105 10107 10108 10109 10111 10112 10114 10115 10117 10119 10121 10122 10124 10125 10126 10127
10024 10025 10025 10025 10026 10027 10028 10029 10031 10033 10034 10036 10038 10040 10043 10045 10047 10050 10052 10055 10057 10060 10062 10065 10068 10070 10073 10075 10077 10079 10082 10084 10085 10087 10089 10090 10092 10094 10095 10097 10098 10100 10101 10102 10104 10106 10107 10109 10110 10111 10112 10112 10113 10113
10033 10034 10034 10034 10034 10038 10038 10038 10040 10041 10042 10043 10045 10047 10049 10050 10052 10053 10055 10056 10058 10059 10060 10063 10065 10066 10068 10070 10072 10073 10076 10077 10079 10080 10082 10083 10085 10086 10087 10088 10090 10091 10093 10094 10095 10096 10097 10097 10098 10098 10099 10099 10099 10099
10043 10043 10044 10045 10045 10045 10046 10046 10047 10047 10049 10050 10052 10053 10054 10055 10057 10058 10058 10059 10059 10060 10061 10062 10063 10064 10065 10066 10067 10069 10070 10071 10072 10074 10075 10076 10077 10078 10078 10079 10079 10081 10082 10082 10083 10084 10084 10085 10085 10085 10085 10085 10085 10084
10052 10052 10053 10054 10054 10054 10054 10054 10054 10055 10056 10056 10057 10058 10058 10059 10059 10060 10061 10061 10061 10062 10062 10062 10062 10062 10061 10061 10062 10062 10063 10064 10064 10065 10065 10065 10066 10067 10068 10068 10069 10070 10071 10071 10072 10072 10072 10072 10072 10071 10071 10071 10071 10070
10060 10059 10059 10060 10059 10059 10059 10059 10059 10059 10059 10059 10059 10059 10059 10059 10060 10060 10059 10059 10059 10059 10059 10059 10059 10059 10058 10057 10056 10056 10056 10056 10056 10056 10056 10057 10057 10057 10057 10058 10058 10059 10060 10060 10060 10060 10060 10059 10059 10058 10058 10058 10058 10057
10065 10064 10064 10064 10064 10063 10063 10062 10062 10062 10061 10061 10060 10059 10059 10058 10057 10056 10055 10054 10053 10053 10052 10051 10050 10049 10049 10048 10048 10048 10048 10048 10048 10048 10048 10048 10048 10047 10047 10047 10048 10048 10048 10048 10048 10048 10047 10047 10047 10046 10046 10045 10044 10042
10068 10067 10067 10067 10066 10065 10064 10063 10063 10062 10061 10059 10058 10057 10056 10054 10053 10051 10050 10048 10047 10045 10043 10042 10041 10040 10039 10037 10037 10036 10035 10035 10035 10035 10035 10035 10035 10035 10035 10035 10035 10035 10035 10034 10034 10034 10034 10034 10033 10033 10032 10031 10029 10028
10068 10067 10067 10066 10066 10066 10065 10063 10062 10060 10058 10055 10053 10051 10049 10047 10046 10043 10041 10039 10036 10034 10033 10031 10029 10028 10027 10026 10025 10024 10024 10023 10023 10023 10023 10023 10023 10022 10022 10022 10021 10021 10020 10020 10020 10019 10019 10018 10017 10016 10015 10014 10013 10011
10068 10067 10067 10066 10064 10063 10061 10059 10057 10054 10051 10048 10047 10043 10040 10038 10036 10033 10030 10028 10025 10023 10021 10019 10017 10016 10014 10013 10012 10012 10011 10011 10010 10009 10009 10008 10008 10008 10008 10007 10007 10006 10006 10005 10004 10004 10003 10002 10001 9999 9998 9997 9995 9993
10066 10065 10064 10062 10060 10058 10056 10053 10050 10046 10043 10040 10036 10032 10030 10027 10024 10021 10018 10016 10014 10012 10010 10008 10006 10004 10002 10001 10000 9999 9998 9997 9997 9996 9995 9995 9994 9994 9993 9992 9992 9991 9991 9990 9989 9988 9987 9985 9984 9983 9981 9979 9977 9976
10061 10060 10058 10056 10054 10051 10048 10045 10041 10037 10034 10030 10027 10024 10021 10017 10013 10010 10008 10005 10003 10001 9999 9997 9995 9993 9992 9990 9988 9987 9986 9985 9984 9983 9982 9982 9981 9981 9980 9979 9979 9978 9977 9975 9974 9973 9972 9970 9969 9967 9965 9963 9961 9959
10055 10053 10051 10048 10045 10042 10039 10035 10031 10028 10024 10021 10018 10014 10011 10007 10004 10001 9998 9995 9993 9991 9989 9987 9985 9983 9981 9979 9978 9976 9975 9974 9973 9972 9971 9970 9969 9968 9968 9966 9965 9964 9963 9961 9960 9959 9957 9956 9954 9953 9951 9948 9946 9944
10045 10043 10040 10037 10035 10032 10029 10024 10021 10018 10015 10012 10008 10005 10002 9999 9995 9993 9990 9987 9984 9982 9980 9977 9975 9973 9972 9970 9968 9967 9966 9965 9964 9963 9962 9960 9959 9958 9957 9955 9953 9952 9950 9949 9947 9945 9944 9942 9941 9939 9937 9935 9933 9930
10034 10032 10029 10027 10024 10021 10018 10015 10012 10008 10006 10002 9998 9995 9993 9990 9987 9984 9982 9979 9977 9974 9972 9970 9968 9966 9964 9962 9960 9958 9957 9956 9955 9954 9952 9951 9949 9947 9946 9944 9942 9941 9939 9937 9936 9934 9932 9930 9928 9926 9924 9922 9920 9917